Tracking 19562 objects as of 25-Mar-2019
HD Live streaming from Space Station
objects crossing your sky now

FENGYUN 1C DEB

Track FENGYUN 1C DEB now!
10-day predictions


NORAD ID: 30358
Int'l Code: 1999-025ABV
Perigee: 803.0 km
Apogee: 944.4 km
Inclination: 98.7 °
Period: 102.3 minutes
Semi major axis: 7244 km
RCS: 0.037 m2 (small)
Launch date: May 10, 1999
Source: People's Republic of China (PRC)
Launch site: Taiyaun Space Center, China (TSC)

Note: This is SATELLITE DEBRIS
aabbcc
Your satellite tracking list
Your tracking list is empty




NASA's NSSDC Master Catalog

Two Line Element Set (TLE):
1 30358U 99025ABV 19083.65270483 +.00000519 +00000-0 +31685-3 0  9991
2 30358 098.7281 331.4228 0097618 350.6243 061.1472 14.07904519622802
Source of the keplerian elements: AFSPC